This is the latest recevied weather packets stored in our database for station/object KC8YVF-1. If no packets are shown the sender has not sent any weather packets the latest 10 day(s).
| Time | Temp. | Humidity | Pressure | Rain* | Wind** | Luminosity | Snow |
|---|---|---|---|---|---|---|---|
| 1778042330 | 7.22° C | 70% | 995.5 hPa | 0 mm | - | - | - |
| 1778041809 | 7.22° C | 71% | 995.5 hPa | 0 mm | - | - | - |
| 1778041508 | 7.22° C | 70% | 995.3 hPa | 0 mm | - | - | - |
| 1778041431 | 7.78° C | 70% | 995.5 hPa | 0 mm | - | - | - |
| 1778041260 | 7.78° C | 70% | 995.5 hPa | 0 mm | - | - | - |
| 1778041208 | 7.78° C | 70% | 995.5 hPa | 0 mm | - | - | - |
| 1778040908 | 7.78° C | 68% | 995.5 hPa | 0 mm | - | - | - |
| 1778040608 | 7.78° C | 66% | 995.5 hPa | 0 mm | - | - | - |
| 1778040531 | 7.78° C | 66% | 995.8 hPa | 0 mm | - | - | - |
| 1778040309 | 7.78° C | 66% | 995.9 hPa | 0 mm | - | - | - |
| 1778040008 | 8.33° C | 66% | 995.5 hPa | 0 mm | - | - | - |
| 1778039630 | 8.33° C | 62% | 995.5 hPa | 0 mm | - | - | - |
| 1778039409 | 8.33° C | 62% | 995.5 hPa | 0 mm | - | - | - |
| 1778039108 | 8.33° C | 60% | 995.6 hPa | 0 mm | - | - | - |
| 1778038731 | 8.89° C | 55% | 995.5 hPa | 0 mm | - | - | - |
| 1778038209 | 8.89° C | 54% | 995.2 hPa | 0 mm | - | - | - |
| 1778037831 | 8.89° C | 51% | 995.5 hPa | 0 mm | - | - | - |
| 1778037608 | 9.44° C | 51% | 995.5 hPa | 0 mm | - | - | - |
| 1778037308 | 9.44° C | 50% | 995.5 hPa | 0 mm | - | - | - |
| 1778036931 | 9.44° C | 49% | 995.2 hPa | 0 mm | - | - | - |
| 1778036409 | 9.44° C | 49% | 995.2 hPa | 0 mm | - | - | - |
| 1778036109 | 9.44° C | 49% | 995.2 hPa | 0 mm | - | - | - |
| 1778036030 | 9.44° C | 49% | 995.2 hPa | 0 mm | - | - | - |
| 1778035808 | 9.44° C | 48% | 995.2 hPa | 0 mm | - | - | - |
| 1778035509 | 10° C | 48% | 995.1 hPa | 0 mm | - | - | - |
* Rain latest hour (hover to see other rain measurements)
** Current wind speed in m/s (hover to see current wind gust speed)